Location: Kumla
(59.1265°N, 15.1401°E)
Time: 12:46:34
(UTC+01:00)

Tiros 1 despin weight - Pass Details

Date: 10 December 2023
Orbit: 581 x 624 km, 48.2° (Epoch: 27 February)

Event Time Altitude Azimuth Distance (km) Brightness Sun altitude
Rises 17:43:44 0° 230° (SW) 2,808 ? -18.5°
Reaches altitude 10° 17:46:36 10° 211° (SSW) 1,903 ? -18.8°
Maximum altitude 17:49:31 18° 169° (S) 1,461 ? -19.2°
Enters shadow 17:50:52 16° 146° (SE) 1,563 ? -19.4°
